Wind_Speed
48 46 44 43 41 40 37 35 34 32 31 30 30 32 34 32 32 32 33 33 27 23 22 23 22 22 20 20 23 23 20 16 16 24 27 28 25 25 23 23 19 23 25 27 24
51 49 47 45 43 43 40 37 36 36 35 38 36 36 35 33 35 32 34 33 29 26 23 22 22 22 20 21 23 23 22 20 27 26 25 31 28 28 26 24 23 29 23 25 24
54 52 49 48 46 45 43 40 38 38 38 39 38 35 34 35 40 37 37 32 34 28 25 24 23 23 23 23 23 24 21 25 26 27 26 27 28 27 27 25 27 27 24 25 24
58 55 52 50 48 47 45 43 39 40 42 41 40 36 38 44 46 40 40 36 31 31 27 25 25 24 25 24 25 24 23 27 25 27 25 23 23 27 25 27 30 26 24 24 25
61 58 55 54 51 50 48 44 44 43 44 43 42 42 44 46 47 45 41 39 33 31 31 27 26 24 24 25 25 23 25 27 25 22 21 21 21 23 25 29 28 26 26 24 25
62 59 58 56 54 53 51 48 48 48 46 43 45 44 48 51 49 47 47 45 36 32 34 30 27 26 24 25 24 25 22 24 22 22 22 21 22 24 27 28 27 26 26 25 25
65 66 65 62 56 56 54 53 53 49 50 50 50 54 52 50 49 48 50 45 32 32 34 32 28 26 23 25 22 23 23 24 23 24 23 23 22 26 29 26 29 27 27 26 26
67 67 64 60 57 56 55 54 53 54 52 56 56 60 52 52 50 54 43 41 34 32 35 33 31 30 24 26 23 23 24 25 28 25 28 24 22 33 26 30 29 30 28 27 27
77 70 67 68 67 65 71 58 56 54 56 56 57 57 55 49 49 37 38 37 33 33 36 35 34 32 28 27 27 25 24 25 29 30 29 24 23 33 30 29 28 30 27 29 29
78 76 68 68 68 66 65 65 58 59 61 60 61 61 54 50 43 36 35 35 33 33 36 36 35 35 31 30 25 26 29 28 26 37 28 33 26 29 33 33 32 31 32 33 33
81 86 82 77 73 73 72 70 67 64 62 60 67 62 55 47 37 36 33 34 35 32 35 36 38 32 31 32 30 32 33 28 28 32 36 32 33 29 32 35 38 36 33 37 37
67 79 82 76 76 71 73 77 72 76 66 64 67 65 54 41 36 34 32 34 34 33 36 37 36 33 35 34 33 32 33 30 31 33 38 34 34 31 33 35 36 42 37 38 39
70 73 80 86 84 81 73 75 73 73 72 65 59 54 53 43 36 36 33 33 34 37 37 36 34 34 35 34 32 32 32 32 34 33 35 34 34 36 39 34 35 37 39 39 38
65 63 58 68 74 65 58 65 73 77 69 57 49 46 44 38 39 33 36 36 38 36 36 37 35 31 34 33 33 33 33 34 33 33 33 38 35 40 38 40 34 36 39 39 41
68 65 68 56 58 61 65 64 67 64 66 50 50 43 43 42 38 34 35 38 37 35 39 34 33 34 34 31 33 31 35 31 33 34 37 36 40 37 43 48 45 41 42 44 46
73 67 70 68 63 55 62 69 70 67 59 53 50 40 41 39 41 38 37 39 38 40 42 38 37 34 31 32 31 32 32 32 33 35 41 36 38 38 42 51 51 49 46 45 45
73 73 71 69 64 60 62 58 67 61 56 51 49 42 36 36 36 35 37 40 38 39 39 35 38 32 34 32 31 32 30 33 36 38 39 40 44 41 49 51 52 52 53 53 55
73 73 77 72 69 59 55 62 60 54 53 53 49 45 40 34 33 34 34 40 41 39 41 39 37 34 33 29 32 33 33 36 37 37 35 46 49 45 52 53 55 56 57 57 58
71 75 85 75 73 76 60 61 58 51 53 54 50 47 41 37 36 35 32 32 35 34 36 36 37 37 34 31 35 36 38 33 40 41 45 46 52 55 57 59 61 60 61 62 63
78 74 75 70 72 71 65 60 55 51 50 52 52 47 42 37 36 39 39 37 35 34 36 38 38 39 40 40 42 43 44 43 43 47 48 51 40 34 63 62 63 64 64 66 69
79 86 76 76 73 73 65 62 62 61 54 52 47 48 46 43 41 39 39 40 39 39 42 43 44 46 46 44 43 46 48 50 48 53 53 55 41 49 58 65 67 67 70 74 76
87 86 76 60 70 66 65 67 65 64 61 55 54 53 48 49 47 45 42 43 45 43 45 46 49 51 48 51 52 53 52 53 57 54 58 55 56 58 60 63 66 70 75 78 75
99 95 80 69 75 70 61 67 64 64 59 57 52 53 51 51 48 46 44 49 45 43 46 48 50 48 52 55 53 52 52 53 51 53 53 54 56 61 64 65 66 73 78 73 71
112 106 96 82 68 66 65 57 57 56 57 55 54 53 54 55 52 49 49 46 48 49 47 46 49 50 49 46 53 55 50 50 50 53 51 55 54 59 61 67 73 76 72 71 69
113 110 102 85 81 71 73 65 57 53 53 50 48 56 51 48 52 55 53 51 50 49 47 46 48 49 49 52 56 55 53 52 53 52 57 55 59 60 64 66 73 70 71 70 72
112 108 103 88 83 71 67 71 57 58 56 54 47 41 50 54 55 52 51 52 50 48 46 46 48 49 53 53 51 52 58 59 57 61 60 60 64 62 66 73 69 70 72 73 72
98 99 83 93 88 78 73 64 56 59 56 53 51 52 49 52 55 54 54 49 45 47 47 47 47 49 51 51 52 54 54 57 61 62 62 66 65 67 68 70 72 73 70 72 74
Wind_Direction
237 235 235 237 238 238 239 242 250 251 256 262 271 281 282 285 289 296 302 307 293 286 271 266 263 256 248 244 243 243 242 238 250 258 263 273 268 266 266 268 266 262 265 270 275
236 237 236 237 238 240 241 244 246 252 255 264 269 273 275 280 287 292 302 299 297 285 270 263 261 255 251 246 246 246 247 243 248 267 262 275 272 271 266 267 270 267 269 271 277
237 236 238 238 239 241 242 244 248 256 260 264 270 271 271 277 287 291 295 297 295 285 273 266 261 258 254 251 250 248 248 250 261 264 266 267 273 271 271 270 269 268 273 273 270
238 238 238 239 241 241 243 246 249 256 258 261 265 267 275 278 280 288 292 296 290 279 271 266 262 259 256 254 254 252 253 255 257 260 262 262 265 267 273 270 274 279 279 274 271
239 238 239 240 241 243 242 244 250 254 258 260 259 261 268 275 278 283 290 290 289 274 267 259 259 255 256 254 254 257 257 258 258 257 257 257 260 266 268 270 277 284 284 283 281
240 241 242 241 242 242 245 247 253 253 253 257 257 262 273 280 280 282 285 292 280 268 264 257 255 252 254 257 253 255 256 259 258 255 252 253 258 262 262 268 276 281 283 281 280
238 239 239 243 244 245 247 249 254 249 254 258 262 268 273 282 278 287 285 286 267 261 259 255 252 251 253 256 255 254 252 256 258 258 256 255 257 258 257 266 270 271 274 274 277
239 240 238 240 241 245 249 249 250 252 254 259 262 264 276 279 280 287 277 274 264 256 252 249 248 250 249 253 251 251 250 255 257 257 258 259 260 266 253 266 268 270 269 271 273
241 241 240 243 247 247 251 248 249 250 254 257 262 267 278 276 283 273 264 263 259 254 249 246 244 246 249 253 252 253 253 254 260 252 263 252 256 265 265 265 264 268 266 267 267
236 237 241 242 241 240 245 246 249 252 253 256 260 273 275 275 270 253 257 262 259 255 246 246 245 247 249 252 256 258 256 247 254 266 256 265 255 262 270 270 263 263 268 266 268
239 235 241 242 242 244 247 250 245 247 249 257 262 270 273 280 251 249 252 256 256 252 243 243 243 244 251 251 251 251 255 255 253 259 264 257 257 257 262 265 266 263 266 265 265
241 235 232 237 238 241 243 246 244 247 251 256 263 268 269 262 248 248 248 252 252 249 244 243 245 246 248 251 253 255 257 257 254 259 261 264 264 264 261 259 266 267 268 268 270
229 229 236 238 238 241 247 247 248 242 251 258 259 261 264 254 249 245 239 243 247 244 245 246 243 241 247 251 255 257 256 255 256 255 264 263 263 264 263 262 264 267 270 271 273
232 237 239 238 238 238 241 250 245 246 252 256 255 252 248 247 242 243 237 241 242 241 245 242 242 241 248 250 254 255 258 255 259 259 260 261 265 267 268 266 264 266 269 275 278
232 235 239 238 238 245 248 248 244 247 251 257 252 247 240 247 253 238 240 236 242 239 240 244 239 247 243 247 251 254 255 260 259 261 261 259 270 277 272 278 273 270 276 276 279
230 233 234 236 243 236 237 239 241 245 248 247 247 239 239 242 247 245 234 239 238 236 234 236 237 242 247 245 248 252 256 257 261 264 266 273 271 276 276 277 277 284 284 280 279
223 223 234 240 237 245 230 236 235 240 241 241 242 242 243 242 244 244 235 239 240 239 239 240 246 239 243 243 247 253 256 262 263 265 275 278 277 282 276 277 284 286 286 288 289
217 227 231 233 236 228 226 227 233 239 236 243 242 248 243 245 244 240 237 233 235 234 235 232 239 246 247 249 251 250 255 256 266 271 270 275 278 278 279 280 282 281 281 281 281
213 218 225 223 229 235 229 228 233 230 231 241 244 244 246 246 241 239 237 231 229 231 238 238 238 242 245 244 252 258 254 265 265 268 271 271 274 279 282 280 279 280 281 283 286
212 217 221 218 225 229 231 230 233 230 236 234 238 241 244 245 243 241 240 239 235 234 236 240 241 248 250 251 253 258 266 263 265 269 274 277 278 275 279 279 281 282 285 285 283
212 216 217 216 226 224 227 232 236 235 237 231 229 237 242 242 239 238 239 238 239 236 240 245 248 254 254 255 259 259 260 265 268 269 271 274 268 266 273 279 280 283 283 282 282
213 212 211 205 218 221 223 229 229 235 234 231 231 233 239 242 242 238 238 240 242 243 245 246 249 253 259 259 259 264 263 264 266 271 275 273 270 270 272 275 276 278 280 280 282
214 215 215 216 218 218 218 222 224 227 231 234 236 237 238 236 241 237 238 246 246 247 248 252 253 255 259 261 263 266 265 265 267 267 270 271 272 272 275 277 279 274 275 281 283
218 216 217 220 218 218 220 217 219 223 233 234 234 234 235 235 239 247 245 249 249 250 254 256 256 256 258 259 260 261 262 264 263 271 274 272 272 270 274 273 273 277 283 282 283
224 223 222 217 218 213 215 219 223 225 229 230 235 236 239 240 241 246 249 251 253 254 253 254 253 255 255 252 258 263 264 260 264 268 269 275 273 270 273 275 276 281 280 280 281
221 222 224 223 220 217 215 220 219 229 229 234 233 246 242 241 244 246 248 249 248 247 247 248 251 251 252 255 256 254 257 263 269 273 278 277 277 275 275 276 280 277 276 280 283
218 226 230 228 225 218 219 224 224 230 230 234 239 242 240 243 242 247 245 240 241 246 245 248 247 247 251 252 251 255 259 263 269 276 280 279 279 277 280 278 275 276 281 283 288
Height
5810 5813 5816 5819 5822 5824 5826 5829 5832 5833 5835 5836 5837 5838 5838 5837 5838 5839 5838 5837 5836 5835 5835 5836 5837 5838 5840 5843 5844 5846 5848 5850 5850 5848 5847 5845 5846 5847 5849 5849 5851 5849 5849 5848 5850
5801 5806 5809 5812 5814 5817 5820 5822 5824 5827 5828 5830 5831 5832 5832 5832 5832 5834 5834 5833 5832 5831 5831 5831 5832 5834 5836 5838 5840 5842 5845 5846 5843 5843 5843 5840 5841 5842 5844 5845 5845 5843 5848 5847 5848
5791 5796 5801 5804 5807 5810 5813 5815 5818 5820 5823 5825 5826 5826 5826 5827 5826 5828 5829 5828 5827 5827 5826 5827 5827 5830 5831 5833 5836 5838 5840 5839 5839 5838 5838 5837 5837 5837 5839 5841 5840 5839 5843 5842 5843
5782 5786 5791 5795 5799 5802 5805 5807 5809 5813 5815 5817 5818 5820 5821 5821 5820 5824 5823 5823 5822 5821 5822 5822 5823 5825 5827 5828 5830 5832 5834 5833 5833 5833 5833 5833 5834 5833 5834 5834 5834 5836 5837 5837 5837
5772 5777 5781 5786 5789 5794 5797 5799 5801 5805 5807 5809 5810 5812 5813 5814 5813 5815 5816 5815 5816 5815 5816 5816 5818 5819 5821 5823 5825 5826 5827 5827 5828 5828 5828 5828 5829 5830 5830 5828 5831 5832 5832 5832 5832
5761 5767 5772 5776 5780 5785 5788 5792 5793 5796 5799 5801 5802 5804 5806 5808 5808 5809 5809 5808 5808 5809 5810 5812 5813 5814 5815 5818 5820 5819 5821 5821 5822 5823 5824 5825 5825 5826 5824 5825 5826 5827 5828 5828 5827
5749 5756 5761 5766 5770 5775 5779 5782 5785 5787 5790 5793 5794 5795 5798 5799 5800 5800 5800 5800 5800 5802 5804 5805 5808 5809 5811 5811 5814 5814 5815 5816 5817 5818 5819 5821 5822 5820 5820 5822 5821 5822 5822 5822 5822
5736 5744 5749 5754 5759 5764 5768 5773 5776 5779 5782 5784 5784 5785 5790 5792 5790 5791 5789 5791 5794 5795 5796 5799 5801 5803 5806 5805 5808 5809 5810 5812 5811 5813 5813 5816 5818 5811 5817 5815 5816 5815 5817 5817 5816
5724 5731 5737 5742 5747 5753 5757 5763 5767 5769 5771 5773 5775 5776 5781 5784 5783 5781 5782 5783 5784 5787 5789 5792 5794 5797 5800 5800 5802 5805 5805 5806 5805 5806 5807 5810 5812 5805 5808 5810 5810 5809 5810 5809 5809
5709 5717 5724 5729 5735 5740 5745 5750 5754 5757 5760 5763 5765 5769 5769 5771 5773 5772 5775 5775 5777 5779 5782 5785 5788 5790 5793 5793 5798 5798 5798 5801 5803 5797 5803 5801 5807 5805 5802 5802 5801 5803 5802 5802 5803
5696 5701 5710 5716 5722 5728 5733 5738 5742 5745 5748 5755 5754 5758 5757 5762 5764 5764 5765 5768 5769 5771 5775 5777 5779 5786 5786 5786 5789 5790 5791 5796 5796 5794 5792 5796 5797 5800 5799 5797 5796 5795 5796 5794 5795
5677 5684 5693 5700 5707 5715 5719 5722 5728 5728 5737 5741 5742 5746 5748 5752 5753 5756 5759 5760 5762 5764 5766 5770 5773 5779 5777 5779 5782 5784 5785 5789 5789 5788 5786 5789 5790 5792 5791 5791 5791 5787 5790 5789 5788
5665 5671 5677 5685 5693 5698 5706 5713 5712 5720 5722 5728 5731 5734 5740 5742 5746 5745 5750 5751 5752 5755 5758 5762 5767 5769 5770 5772 5775 5777 5779 5780 5781 5781 5780 5781 5782 5782 5779 5784 5784 5781 5780 5779 5779
5653 5661 5665 5672 5680 5689 5695 5699 5704 5707 5710 5716 5721 5724 5728 5731 5731 5739 5739 5743 5743 5749 5751 5753 5757 5762 5763 5766 5767 5769 5771 5771 5773 5774 5775 5772 5776 5770 5772 5771 5775 5774 5772 5772 5771
5642 5649 5656 5665 5673 5679 5688 5688 5689 5694 5699 5710 5707 5710 5718 5721 5724 5730 5732 5733 5736 5742 5743 5747 5749 5752 5755 5759 5758 5762 5761 5765 5765 5765 5765 5767 5764 5767 5762 5757 5761 5765 5765 5764 5763
5630 5638 5644 5650 5660 5665 5668 5669 5676 5686 5683 5693 5696 5704 5708 5713 5713 5717 5723 5724 5729 5731 5733 5737 5740 5744 5749 5750 5751 5753 5755 5757 5757 5757 5754 5760 5760 5759 5755 5750 5747 5750 5751 5752 5751
5616 5623 5630 5640 5652 5650 5652 5660 5663 5670 5678 5684 5687 5694 5699 5702 5705 5708 5713 5715 5719 5723 5726 5733 5730 5737 5739 5742 5744 5745 5748 5748 5748 5748 5749 5749 5748 5749 5745 5743 5741 5740 5739 5738 5736
5603 5613 5617 5628 5635 5636 5638 5644 5649 5663 5670 5673 5679 5685 5690 5694 5696 5699 5703 5706 5710 5715 5717 5720 5723 5728 5732 5736 5736 5737 5739 5739 5740 5741 5742 5735 5735 5737 5734 5734 5732 5729 5727 5725 5722
5590 5596 5595 5609 5618 5624 5623 5623 5641 5651 5660 5665 5672 5675 5680 5685 5691 5693 5697 5700 5703 5708 5711 5712 5716 5719 5723 5727 5727 5729 5729 5734 5729 5730 5730 5731 5725 5723 5722 5720 5717 5716 5714 5713 5711
5572 5577 5578 5592 5601 5606 5604 5617 5634 5643 5649 5653 5660 5668 5671 5677 5683 5686 5688 5692 5695 5699 5700 5704 5707 5711 5713 5716 5718 5719 5719 5720 5721 5720 5720 5720 5717 5717 5708 5708 5705 5703 5700 5697 5693
5551 5553 5563 5574 5582 5583 5588 5609 5620 5631 5635 5643 5651 5657 5662 5668 5672 5677 5681 5684 5686 5691 5692 5695 5698 5699 5701 5706 5709 5709 5709 5708 5710 5709 5709 5711 5713 5702 5699 5697 5693 5689 5685 5680 5676
5528 5531 5550 5552 5554 5564 5584 5598 5607 5618 5625 5629 5639 5646 5651 5655 5661 5666 5669 5674 5676 5681 5683 5685 5685 5686 5692 5693 5694 5695 5698 5697 5696 5700 5697 5698 5697 5689 5688 5685 5680 5674 5667 5662 5662
5508 5520 5531 5534 5534 5561 5573 5584 5595 5604 5615 5620 5629 5635 5639 5644 5647 5655 5658 5659 5666 5669 5670 5671 5673 5677 5678 5679 5681 5683 5683 5683 5684 5683 5684 5685 5684 5674 5672 5671 5666 5656 5650 5654 5650
5484 5496 5505 5510 5531 5549 5565 5576 5587 5595 5604 5610 5618 5620 5628 5633 5638 5644 5644 5649 5653 5654 5657 5659 5660 5662 5666 5668 5666 5666 5670 5670 5669 5668 5672 5670 5675 5663 5663 5656 5643 5638 5639 5635 5633
5458 5468 5485 5498 5526 5542 5551 5566 5573 5584 5595 5600 5607 5612 5618 5622 5626 5632 5634 5639 5641 5643 5643 5644 5646 5649 5652 5651 5651 5654 5655 5655 5654 5656 5653 5660 5657 5650 5645 5641 5629 5628 5624 5621 5616
5448 5461 5476 5502 5519 5529 5538 5552 5563 5577 5585 5593 5600 5605 5607 5611 5617 5621 5620 5625 5627 5630 5630 5632 5633 5634 5634 5636 5639 5641 5640 5639 5639 5640 5640 5639 5640 5635 5630 5622 5618 5613 5610 5605 5599
5434 5455 5474 5489 5502 5511 5531 5549 5561 5567 5575 5582 5588 5589 5594 5599 5604 5607 5607 5609 5613 5615 5616 5618 5619 5621 5622 5623 5623 5625 5627 5628 5626 5627 5626 5621 5622 5616 5615 5610 5601 5597 5594 5588 5584